SL-8 R/B, 23190

Orbit data source: Space-Track

SL-8 R/B, 23190 is space debris in LEO originally from a launch on Tue, 02 Aug 1994 UTC launched from the Plesetsk Missile And Space Complex (PKMTR). Debris objects in space refer to the collection of defunct objects orbiting the Earth. Examples of debris include non-operational satellites, rocket bodies, and fragments generated from explosions, collisions, or faulty payload assembly.

Loading next visibility...
Identifier
23190, 1994-045B
Orbit
LEO
Country
Flag of CISCIS
Related business
Manufacturer
Polyot
Mission
Spacecraft
Bus & Motor
S3, Unknown motor
Mass
1,434 kg wet, 1,434 kg dry
Launch date (UTC)
1994-08-02 (31 years ago)
Launch vehicle
Unknown
Launch site
Plesetsk Missile And Space Complex (PKMTR)
Object type
Payload
Rocket body
Debris
Shape & HBR
Cyl, 3.3 m
Radar Cross Section
14.646 m², Large (>1 m²)

Expand to show TLE details & history
Last TLE update: 11 hours ago

TLE from 11 hours ago
0 SL-8 R/B
1 23190U 94045B   25354.75313148 -.00000030  00000-0 -75045-5 0  9999
2 23190  74.0285 350.6003 0019279 354.9024   5.1896 13.74364791573970
Epoch: 2025-12-20T18:04Z
TLE epoch observation values (Epoch: 2025-12-20T18:04:30.559Z)
Latitude
-0.00005°
Longitude
-10.10246°
Altitude
972.341 km
Speed
7.373 km/s
True Right ascension
23h 22m 24s
True Declination
0° 00' 00"
Sunlit
Object was in daylight at epoch
Visualization orbit readout
Latitude
Unknown
Longitude
Unknown
Altitude
Unknown
Speed
Unknown
Apparent Right ascension
Unknown
Apparent Declination
Unknown
Sunlit
N/A
Visualization observer readout
Local Sidereal Time
03:42:38
Azimuth
Unknown
Elevation
Unknown
Doppler factor
Unknown
Orbital elements
Apogee altitude
995.825 km
Perigee altitude
967.447 km
Semi-major axis
7,359.773 km
Eccentricity
0.00193
Inclination
74.0285°
RAAN
350.6003°
Arg. of periapsis
354.9024°
True anomaly
5.20963°
Mean anomaly
5.1896°
Eccentric anomaly
5.19961°
Mean motion
3.43753 °/min
Orbital period
104.73 mins
BSTAR
-0.0000075045
Loading maneuver chart data...
Computing Atmospheric mass density...
Loading historical data...
Loading historical data...
Loading historical data...
Loading historical data...
Loading historical data...
Loading historical data...
Loading historical data...
Other satellites on launch #45 in the year 1994 (1994-08-02 UTC)

Documentation

Showing up to 5 results
|